contact:dominique.lefevre@mio.osupytheas.fr, maurice.libes@osupytheas.fr, didier.mallarino@osupytheas.fr
Project:EMSO http://www.emso-fr.org/EMSO-France
Depth: 2436.0 m
Title:EMSO Ligure Ouest : Data MII capteur MICROCAT
DateTime_Computer,Latitude,Longitude,Temperature,Conductivity,Pressure,DateTime_Instrument
DateTime_Computer,Latitude,Longitude,degC,S m-1,dbar,DateTime_Instrument
2023-11-14T00:02:52Z,42.805,6.029,13.3071,4.60146,2470.693,2023-11-14T02:05:20Z
2023-11-14T00:05:56Z,42.805,6.029,13.3075,4.60135,2470.684,2023-11-14T02:08:23Z
2023-11-14T00:08:59Z,42.805,6.029,13.3072,4.60137,2470.684,2023-11-14T02:11:26Z
2023-11-14T00:12:02Z,42.805,6.029,13.3070,4.60138,2470.707,2023-11-14T02:14:29Z
2023-11-14T00:15:05Z,42.805,6.029,13.3069,4.60141,2470.646,2023-11-14T02:17:32Z
2023-11-14T00:18:08Z,42.805,6.029,13.3073,4.60142,2470.67,2023-11-14T02:20:35Z
2023-11-14T00:21:11Z,42.805,6.029,13.3078,4.60140,2470.646,2023-11-14T02:23:38Z
2023-11-14T00:24:14Z,42.805,6.029,13.3074,4.60143,2470.67,2023-11-14T02:26:41Z
2023-11-14T00:27:17Z,42.805,6.029,13.3092,4.60147,2470.67,2023-11-14T02:29:44Z
2023-11-14T00:30:20Z,42.805,6.029,13.3079,4.60151,2470.684,2023-11-14T02:32:47Z
2023-11-14T00:33:23Z,42.805,6.029,13.3089,4.60135,2470.693,2023-11-14T02:35:50Z
2023-11-14T00:36:26Z,42.805,6.029,13.3089,4.60138,2470.684,2023-11-14T02:38:53Z
2023-11-14T00:39:29Z,42.805,6.029,13.3075,4.60145,2470.661,2023-11-14T02:41:57Z
2023-11-14T00:42:33Z,42.805,6.029,13.3096,4.60146,2470.67,2023-11-14T02:45:00Z
2023-11-14T00:45:36Z,42.805,6.029,13.3077,4.60140,2470.684,2023-11-14T02:48:03Z
2023-11-14T00:48:39Z,42.805,6.029,13.3078,4.60140,2470.684,2023-11-14T02:51:06Z
2023-11-14T00:51:42Z,42.805,6.029,13.3069,4.60152,2470.661,2023-11-14T02:54:09Z
2023-11-14T00:54:45Z,42.805,6.029,13.3078,4.60151,2470.684,2023-11-14T02:57:12Z
2023-11-14T00:57:48Z,42.805,6.029,13.3081,4.60147,2470.67,2023-11-14T03:00:15Z
2023-11-14T01:00:51Z,42.805,6.029,13.3084,4.60150,2470.684,2023-11-14T03:03:18Z
2023-11-14T01:03:54Z,42.805,6.029,13.3085,4.60139,2470.646,2023-11-14T03:06:21Z
2023-11-14T01:06:57Z,42.805,6.029,13.3096,4.60144,2470.661,2023-11-14T03:09:24Z
2023-11-14T01:10:00Z,42.805,6.029,13.3084,4.60144,2470.661,2023-11-14T03:12:27Z
2023-11-14T01:13:03Z,42.805,6.029,13.3076,4.60148,2470.707,2023-11-14T03:15:30Z
2023-11-14T01:16:06Z,42.805,6.029,13.3089,4.60150,2470.684,2023-11-14T03:18:34Z
2023-11-14T01:19:10Z,42.805,6.029,13.3080,4.60154,2470.646,2023-11-14T03:21:37Z
2023-11-14T01:22:13Z,42.805,6.029,13.3082,4.60167,2470.67,2023-11-14T03:24:40Z
2023-11-14T01:25:16Z,42.805,6.029,13.3098,4.60140,2470.684,2023-11-14T03:27:43Z
2023-11-14T01:28:19Z,42.805,6.029,13.3093,4.60158,2470.633,2023-11-14T03:30:46Z
2023-11-14T01:31:22Z,42.805,6.029,13.3090,4.60143,2470.661,2023-11-14T03:33:49Z
2023-11-14T01:34:25Z,42.805,6.029,13.3090,4.60150,2470.656,2023-11-14T03:36:52Z
2023-11-14T01:37:28Z,42.805,6.029,13.3098,4.60151,2470.67,2023-11-14T03:39:55Z
2023-11-14T01:40:31Z,42.805,6.029,13.3102,4.60153,2470.684,2023-11-14T03:42:58Z
2023-11-14T01:43:34Z,42.805,6.029,13.3086,4.60152,2470.684,2023-11-14T03:46:01Z
2023-11-14T01:46:37Z,42.805,6.029,13.3078,4.60150,2470.661,2023-11-14T03:49:04Z
2023-11-14T01:49:40Z,42.805,6.029,13.3089,4.60144,2470.67,2023-11-14T03:52:08Z
2023-11-14T01:52:43Z,42.805,6.029,13.3096,4.60152,2470.684,2023-11-14T03:55:11Z
2023-11-14T01:55:47Z,42.805,6.029,13.3107,4.60152,2470.67,2023-11-14T03:58:14Z
2023-11-14T01:58:50Z,42.805,6.029,13.3093,4.60150,2470.693,2023-11-14T04:01:17Z
2023-11-14T02:01:53Z,42.805,6.029,13.3091,4.60150,2470.67,2023-11-14T04:04:20Z
2023-11-14T02:04:56Z,42.805,6.029,13.3094,4.60151,2470.684,2023-11-14T04:07:23Z
2023-11-14T02:07:59Z,42.805,6.029,13.3088,4.60155,2470.684,2023-11-14T04:10:26Z
2023-11-14T02:11:02Z,42.805,6.029,13.3092,4.60152,2470.661,2023-11-14T04:13:29Z
2023-11-14T02:14:05Z,42.805,6.029,13.3086,4.60154,2470.661,2023-11-14T04:16:32Z
2023-11-14T02:17:08Z,42.805,6.029,13.3091,4.60149,2470.646,2023-11-14T04:19:35Z
2023-11-14T02:20:11Z,42.805,6.029,13.3094,4.60150,2470.624,2023-11-14T04:22:38Z
2023-11-14T02:23:14Z,42.805,6.029,13.3084,4.60145,2470.661,2023-11-14T04:25:41Z
2023-11-14T02:26:17Z,42.805,6.029,13.3095,4.60148,2470.684,2023-11-14T04:28:44Z
2023-11-14T02:29:20Z,42.805,6.029,13.3078,4.60148,2470.67,2023-11-14T04:31:48Z
2023-11-14T02:32:24Z,42.805,6.029,13.3084,4.60150,2470.684,2023-11-14T04:34:51Z
2023-11-14T02:35:27Z,42.805,6.029,13.3096,4.60149,2470.67,2023-11-14T04:37:54Z
2023-11-14T02:38:30Z,42.805,6.029,13.3094,4.60147,2470.67,2023-11-14T04:40:57Z
2023-11-14T02:41:33Z,42.805,6.029,13.3098,4.60138,2470.661,2023-11-14T04:44:00Z
2023-11-14T02:44:36Z,42.805,6.029,13.3084,4.60152,2470.693,2023-11-14T04:47:03Z
2023-11-14T02:47:39Z,42.805,6.029,13.3099,4.60148,2470.684,2023-11-14T04:50:06Z
2023-11-14T02:50:42Z,42.805,6.029,13.3089,4.60157,2470.67,2023-11-14T04:53:09Z
2023-11-14T02:53:45Z,42.805,6.029,13.3089,4.60163,2470.661,2023-11-14T04:56:12Z
2023-11-14T02:56:48Z,42.805,6.029,13.3091,4.60155,2470.693,2023-11-14T04:59:15Z
2023-11-14T02:59:51Z,42.805,6.029,13.3093,4.60149,2470.684,2023-11-14T05:02:18Z
2023-11-14T03:02:54Z,42.805,6.029,13.3091,4.60155,2470.707,2023-11-14T05:05:21Z
2023-11-14T03:05:57Z,42.805,6.029,13.3091,4.60137,2470.717,2023-11-14T05:08:25Z
2023-11-14T03:09:01Z,42.805,6.029,13.3078,4.60150,2470.707,2023-11-14T05:11:28Z
2023-11-14T03:12:04Z,42.805,6.029,13.3094,4.60155,2470.707,2023-11-14T05:14:31Z
2023-11-14T03:15:07Z,42.805,6.029,13.3089,4.60144,2470.707,2023-11-14T05:17:34Z
2023-11-14T03:18:10Z,42.805,6.029,13.3113,4.60142,2470.717,2023-11-14T05:20:37Z
2023-11-14T03:21:13Z,42.805,6.029,13.3073,4.60160,2470.707,2023-11-14T05:23:40Z
2023-11-14T03:24:16Z,42.805,6.029,13.3085,4.60152,2470.717,2023-11-14T05:26:43Z
2023-11-14T03:27:19Z,42.805,6.029,13.3075,4.60150,2470.707,2023-11-14T05:29:46Z
2023-11-14T03:30:22Z,42.805,6.029,13.3093,4.60156,2470.707,2023-11-14T05:32:49Z
2023-11-14T03:33:25Z,42.805,6.029,13.3106,4.60151,2470.717,2023-11-14T05:35:52Z
2023-11-14T03:36:28Z,42.805,6.029,13.3087,4.60181,2470.717,2023-11-14T05:38:55Z
2023-11-14T03:39:31Z,42.805,6.029,13.3089,4.60187,2470.679,2023-11-14T05:41:58Z
2023-11-14T03:42:34Z,42.805,6.029,13.3092,4.60152,2470.74,2023-11-14T05:45:02Z
2023-11-14T03:45:38Z,42.805,6.029,13.3091,4.60163,2470.754,2023-11-14T05:48:05Z
2023-11-14T03:48:41Z,42.805,6.029,13.3106,4.60170,2470.74,2023-11-14T05:51:08Z
2023-11-14T03:51:44Z,42.805,6.029,13.3094,4.60175,2470.74,2023-11-14T05:54:11Z
2023-11-14T03:54:47Z,42.805,6.029,13.3097,4.60166,2470.73,2023-11-14T05:57:14Z
2023-11-14T03:57:50Z,42.805,6.029,13.3099,4.60150,2470.717,2023-11-14T06:00:17Z
2023-11-14T04:00:53Z,42.805,6.029,13.3120,4.60181,2470.74,2023-11-14T06:03:20Z
2023-11-14T04:03:56Z,42.805,6.029,13.3113,4.60147,2470.73,2023-11-14T06:06:23Z
2023-11-14T04:06:59Z,42.805,6.029,13.3101,4.60150,2470.717,2023-11-14T06:09:26Z
2023-11-14T04:10:02Z,42.805,6.029,13.3111,4.60164,2470.754,2023-11-14T06:12:29Z
2023-11-14T04:13:05Z,42.805,6.029,13.3076,4.60164,2470.74,2023-11-14T06:15:32Z
2023-11-14T04:16:08Z,42.805,6.029,13.3052,4.60158,2470.777,2023-11-14T06:18:35Z
2023-11-14T04:19:11Z,42.805,6.029,13.3045,4.60168,2470.754,2023-11-14T06:21:39Z
2023-11-14T04:22:15Z,42.805,6.029,13.3047,4.60145,2470.763,2023-11-14T06:24:42Z
2023-11-14T04:25:18Z,42.805,6.029,13.3089,4.60150,2470.777,2023-11-14T06:27:45Z
2023-11-14T04:28:21Z,42.805,6.029,13.3104,4.60157,2470.777,2023-11-14T06:30:48Z
2023-11-14T04:31:24Z,42.805,6.029,13.3044,4.60167,2470.777,2023-11-14T06:33:51Z
2023-11-14T04:34:27Z,42.805,6.029,13.3052,4.60149,2470.777,2023-11-14T06:36:54Z
2023-11-14T04:37:30Z,42.805,6.029,13.3050,4.60139,2470.73,2023-11-14T06:39:57Z
2023-11-14T04:40:33Z,42.805,6.029,13.3044,4.60171,2470.787,2023-11-14T06:43:00Z
2023-11-14T04:43:36Z,42.805,6.029,13.3045,4.60145,2470.787,2023-11-14T06:46:03Z
2023-11-14T04:46:39Z,42.805,6.029,13.3048,4.60150,2470.763,2023-11-14T06:49:06Z
2023-11-14T04:49:42Z,42.805,6.029,13.3046,4.60148,2470.777,2023-11-14T06:52:09Z
2023-11-14T04:52:45Z,42.805,6.029,13.3043,4.60154,2470.777,2023-11-14T06:55:12Z
2023-11-14T04:55:48Z,42.805,6.029,13.3055,4.60146,2470.81,2023-11-14T06:58:16Z
2023-11-14T04:58:52Z,42.805,6.029,13.3044,4.60160,2470.773,2023-11-14T07:01:19Z
2023-11-14T05:01:55Z,42.805,6.029,13.3044,4.60142,2470.8,2023-11-14T07:04:22Z
2023-11-14T05:04:58Z,42.805,6.029,13.3043,4.60142,2470.777,2023-11-14T07:07:25Z
2023-11-14T05:08:01Z,42.805,6.029,13.3044,4.60138,2470.824,2023-11-14T07:10:28Z
2023-11-14T05:11:04Z,42.805,6.029,13.3044,4.60139,2470.81,2023-11-14T07:13:31Z
2023-11-14T05:14:07Z,42.805,6.029,13.3045,4.60156,2470.81,2023-11-14T07:16:34Z
2023-11-14T05:17:10Z,42.805,6.029,13.3048,4.60165,2470.8,2023-11-14T07:19:37Z
2023-11-14T05:20:13Z,42.805,6.029,13.3044,4.60177,2470.796,2023-11-14T07:22:40Z
2023-11-14T05:23:16Z,42.805,6.029,13.3061,4.60151,2470.8,2023-11-14T07:25:43Z
2023-11-14T05:26:19Z,42.805,6.029,13.3054,4.60169,2470.81,2023-11-14T07:28:46Z
2023-11-14T05:29:22Z,42.805,6.029,13.3052,4.60174,2470.824,2023-11-14T07:31:49Z
2023-11-14T05:32:25Z,42.805,6.029,13.3101,4.60152,2470.847,2023-11-14T07:34:53Z
2023-11-14T05:35:29Z,42.805,6.029,13.3061,4.60163,2470.824,2023-11-14T07:37:56Z
2023-11-14T05:38:32Z,42.805,6.029,13.3048,4.60173,2470.81,2023-11-14T07:40:59Z
2023-11-14T05:41:35Z,42.805,6.029,13.3046,4.60206,2470.833,2023-11-14T07:44:02Z
2023-11-14T05:44:38Z,42.805,6.029,13.3051,4.60160,2470.833,2023-11-14T07:47:05Z
2023-11-14T05:47:41Z,42.805,6.029,13.3049,4.60143,2470.833,2023-11-14T07:50:08Z
2023-11-14T05:50:44Z,42.805,6.029,13.3048,4.60158,2470.833,2023-11-14T07:53:11Z
2023-11-14T05:53:47Z,42.805,6.029,13.3128,4.60170,2470.81,2023-11-14T07:56:14Z
2023-11-14T05:56:50Z,42.805,6.029,13.3062,4.60160,2470.871,2023-11-14T07:59:17Z
2023-11-14T05:59:53Z,42.805,6.029,13.3048,4.60162,2470.88,2023-11-14T08:02:20Z
2023-11-14T06:02:56Z,42.805,6.029,13.3062,4.60167,2470.833,2023-11-14T08:05:23Z
2023-11-14T06:05:59Z,42.805,6.029,13.3054,4.60157,2470.833,2023-11-14T08:08:26Z
2023-11-14T06:09:02Z,42.805,6.029,13.3048,4.60172,2470.857,2023-11-14T08:11:30Z
2023-11-14T06:12:06Z,42.805,6.029,13.3086,4.60150,2470.917,2023-11-14T08:14:33Z
2023-11-14T06:15:09Z,42.805,6.029,13.3058,4.60156,2470.857,2023-11-14T08:17:36Z
2023-11-14T06:18:12Z,42.805,6.029,13.3092,4.60165,2470.88,2023-11-14T08:20:39Z
2023-11-14T06:21:15Z,42.805,6.029,13.3055,4.60167,2470.88,2023-11-14T08:23:42Z
2023-11-14T06:24:18Z,42.805,6.029,13.3051,4.60185,2470.871,2023-11-14T08:26:45Z
2023-11-14T06:27:21Z,42.805,6.029,13.3041,4.60161,2470.833,2023-11-14T08:29:48Z
2023-11-14T06:30:24Z,42.805,6.029,13.3043,4.60138,2470.871,2023-11-14T08:32:51Z
2023-11-14T06:33:27Z,42.805,6.029,13.3061,4.60144,2470.857,2023-11-14T08:35:54Z
2023-11-14T06:36:30Z,42.805,6.029,13.3093,4.60145,2470.857,2023-11-14T08:38:57Z
2023-11-14T06:39:33Z,42.805,6.029,13.3070,4.60155,2470.88,2023-11-14T08:42:00Z
2023-11-14T06:42:36Z,42.805,6.029,13.3049,4.60159,2470.871,2023-11-14T08:45:03Z
2023-11-14T06:45:39Z,42.805,6.029,13.3054,4.60152,2470.917,2023-11-14T08:48:07Z
2023-11-14T06:48:43Z,42.805,6.029,13.3042,4.60161,2470.894,2023-11-14T08:51:10Z
2023-11-14T06:51:46Z,42.805,6.029,13.3046,4.60160,2470.88,2023-11-14T08:54:13Z
2023-11-14T06:54:49Z,42.805,6.029,13.3047,4.60147,2470.917,2023-11-14T08:57:16Z
2023-11-14T06:57:52Z,42.805,6.029,13.3053,4.60139,2470.88,2023-11-14T09:00:19Z
2023-11-14T07:00:55Z,42.805,6.029,13.3044,4.60156,2470.894,2023-11-14T09:03:22Z
2023-11-14T07:03:58Z,42.805,6.029,13.3046,4.60135,2470.917,2023-11-14T09:06:25Z
2023-11-14T07:07:01Z,42.805,6.029,13.3046,4.60137,2470.894,2023-11-14T09:09:28Z
2023-11-14T07:10:04Z,42.805,6.029,13.3044,4.60153,2470.894,2023-11-14T09:12:31Z
2023-11-14T07:13:07Z,42.805,6.029,13.3046,4.60182,2470.904,2023-11-14T09:15:34Z
2023-11-14T07:16:10Z,42.805,6.029,13.3051,4.60182,2470.917,2023-11-14T09:18:37Z
2023-11-14T07:19:13Z,42.805,6.029,13.3048,4.60150,2470.904,2023-11-14T09:21:40Z
2023-11-14T07:22:16Z,42.805,6.029,13.3043,4.60141,2470.88,2023-11-14T09:24:44Z
2023-11-14T07:25:20Z,42.805,6.029,13.3065,4.60160,2470.904,2023-11-14T09:27:47Z
2023-11-14T07:28:23Z,42.805,6.029,13.3048,4.60172,2470.904,2023-11-14T09:30:50Z
2023-11-14T07:31:26Z,42.805,6.029,13.3064,4.60145,2470.94,2023-11-14T09:33:53Z
2023-11-14T07:34:29Z,42.805,6.029,13.3063,4.60166,2470.88,2023-11-14T09:36:56Z
2023-11-14T07:37:32Z,42.805,6.029,13.3078,4.60152,2470.88,2023-11-14T09:39:59Z
2023-11-14T07:40:35Z,42.805,6.029,13.3043,4.60168,2470.857,2023-11-14T09:43:02Z
2023-11-14T07:43:38Z,42.805,6.029,13.3047,4.60196,2470.904,2023-11-14T09:46:05Z
2023-11-14T07:46:41Z,42.805,6.029,13.3112,4.60166,2470.894,2023-11-14T09:49:08Z
2023-11-14T07:49:44Z,42.805,6.029,13.3137,4.60155,2470.88,2023-11-14T09:52:11Z
2023-11-14T07:52:47Z,42.805,6.029,13.3094,4.60157,2470.904,2023-11-14T09:55:14Z
2023-11-14T07:55:50Z,42.805,6.029,13.3106,4.60169,2470.917,2023-11-14T09:58:17Z
2023-11-14T07:58:53Z,42.805,6.029,13.3054,4.60162,2470.927,2023-11-14T10:01:21Z
2023-11-14T08:01:57Z,42.805,6.029,13.3052,4.60205,2470.894,2023-11-14T10:04:24Z
2023-11-14T08:05:00Z,42.805,6.029,13.3048,4.60196,2470.904,2023-11-14T10:07:27Z
2023-11-14T08:08:03Z,42.805,6.029,13.3105,4.60176,2470.904,2023-11-14T10:10:30Z
2023-11-14T08:11:06Z,42.805,6.029,13.3119,4.60180,2470.904,2023-11-14T10:13:33Z
2023-11-14T08:14:09Z,42.805,6.029,13.3106,4.60210,2470.94,2023-11-14T10:16:36Z
2023-11-14T08:17:12Z,42.805,6.029,13.3106,4.60170,2470.904,2023-11-14T10:19:39Z
2023-11-14T08:20:15Z,42.805,6.029,13.3111,4.60167,2470.88,2023-11-14T10:22:42Z
2023-11-14T08:23:18Z,42.805,6.029,13.3132,4.60150,2470.917,2023-11-14T10:25:45Z
2023-11-14T08:26:21Z,42.805,6.029,13.3115,4.60152,2470.904,2023-11-14T10:28:48Z
2023-11-14T08:29:24Z,42.805,6.029,13.3102,4.60154,2470.917,2023-11-14T10:31:51Z
2023-11-14T08:32:27Z,42.805,6.029,13.3124,4.60156,2470.917,2023-11-14T10:34:55Z
2023-11-14T08:35:31Z,42.805,6.029,13.3093,4.60163,2470.917,2023-11-14T10:37:58Z
2023-11-14T08:38:34Z,42.805,6.029,13.3102,4.60159,2470.904,2023-11-14T10:41:01Z
2023-11-14T08:41:37Z,42.805,6.029,13.3124,4.60165,2470.904,2023-11-14T10:44:04Z
2023-11-14T08:44:40Z,42.805,6.029,13.3139,4.60157,2470.917,2023-11-14T10:47:07Z
2023-11-14T08:47:43Z,42.805,6.029,13.3128,4.60150,2470.88,2023-11-14T10:50:10Z
2023-11-14T08:50:46Z,42.805,6.029,13.3136,4.60174,2470.927,2023-11-14T10:53:13Z
2023-11-14T08:53:49Z,42.805,6.029,13.3126,4.60155,2470.904,2023-11-14T10:56:16Z
2023-11-14T08:56:52Z,42.805,6.029,13.3109,4.60150,2470.917,2023-11-14T10:59:19Z
2023-11-14T08:59:55Z,42.805,6.029,13.3093,4.60151,2470.88,2023-11-14T11:02:22Z
2023-11-14T09:02:58Z,42.805,6.029,13.3048,4.60162,2470.88,2023-11-14T11:05:25Z
2023-11-14T09:06:01Z,42.805,6.029,13.3046,4.60227,2470.904,2023-11-14T11:08:28Z
2023-11-14T09:09:04Z,42.805,6.029,13.3045,4.60224,2470.88,2023-11-14T11:11:32Z
2023-11-14T09:12:08Z,42.805,6.029,13.3041,4.60170,2470.894,2023-11-14T11:14:35Z
2023-11-14T09:15:11Z,42.805,6.029,13.3049,4.60154,2470.88,2023-11-14T11:17:38Z
2023-11-14T09:18:14Z,42.805,6.029,13.3055,4.60164,2470.904,2023-11-14T11:20:41Z
2023-11-14T09:21:17Z,42.805,6.029,13.3047,4.60225,2470.89,2023-11-14T11:23:44Z
2023-11-14T09:24:20Z,42.805,6.029,13.3084,4.60177,2470.88,2023-11-14T11:26:47Z
2023-11-14T09:27:23Z,42.805,6.029,13.3106,4.60188,2470.917,2023-11-14T11:29:50Z
2023-11-14T09:30:26Z,42.805,6.029,13.3104,4.60216,2470.88,2023-11-14T11:32:53Z
2023-11-14T09:33:29Z,42.805,6.029,13.3115,4.60167,2470.88,2023-11-14T11:35:56Z
2023-11-14T09:36:32Z,42.805,6.029,13.3134,4.60163,2470.871,2023-11-14T11:38:59Z
2023-11-14T09:39:35Z,42.805,6.029,13.3135,4.60161,2470.857,2023-11-14T11:42:02Z
2023-11-14T09:42:38Z,42.805,6.029,13.3122,4.60151,2470.857,2023-11-14T11:45:06Z
2023-11-14T09:45:41Z,42.805,6.029,13.3121,4.60170,2470.871,2023-11-14T11:48:09Z
2023-11-14T09:48:45Z,42.805,6.029,13.3130,4.60195,2470.857,2023-11-14T11:51:12Z
2023-11-14T09:51:48Z,42.805,6.029,13.3112,4.60197,2470.871,2023-11-14T11:54:15Z
2023-11-14T09:54:51Z,42.805,6.029,13.3112,4.60165,2470.857,2023-11-14T11:57:18Z
2023-11-14T09:57:54Z,42.805,6.029,13.3109,4.60175,2470.833,2023-11-14T12:00:21Z
2023-11-14T10:00:57Z,42.805,6.029,13.3111,4.60161,2470.857,2023-11-14T12:03:24Z
2023-11-14T10:04:00Z,42.805,6.029,13.3113,4.60156,2470.871,2023-11-14T12:06:27Z
2023-11-14T10:07:03Z,42.805,6.029,13.3123,4.60161,2470.833,2023-11-14T12:09:30Z
2023-11-14T10:10:06Z,42.805,6.029,13.3099,4.60150,2470.833,2023-11-14T12:12:33Z
2023-11-14T10:13:09Z,42.805,6.029,13.3112,4.60175,2470.857,2023-11-14T12:15:36Z
2023-11-14T10:16:12Z,42.805,6.029,13.3115,4.60155,2470.833,2023-11-14T12:18:39Z
2023-11-14T10:19:15Z,42.805,6.029,13.3112,4.60157,2470.857,2023-11-14T12:21:43Z
2023-11-14T10:22:19Z,42.805,6.029,13.3098,4.60172,2470.871,2023-11-14T12:24:46Z
2023-11-14T10:25:22Z,42.805,6.029,13.3087,4.60160,2470.833,2023-11-14T12:27:49Z
2023-11-14T10:28:25Z,42.805,6.029,13.3105,4.60141,2470.847,2023-11-14T12:30:52Z
2023-11-14T10:31:28Z,42.805,6.029,13.3138,4.60149,2470.833,2023-11-14T12:33:55Z
2023-11-14T10:34:31Z,42.805,6.029,13.3128,4.60141,2470.847,2023-11-14T12:36:58Z
2023-11-14T10:37:34Z,42.805,6.029,13.3118,4.60182,2470.833,2023-11-14T12:40:01Z
2023-11-14T10:40:37Z,42.805,6.029,13.3124,4.60157,2470.871,2023-11-14T12:43:04Z
2023-11-14T10:43:40Z,42.805,6.029,13.3121,4.60156,2470.833,2023-11-14T12:46:07Z
2023-11-14T10:46:43Z,42.805,6.029,13.3130,4.60146,2470.847,2023-11-14T12:49:10Z
2023-11-14T10:49:46Z,42.805,6.029,13.3128,4.60166,2470.824,2023-11-14T12:52:13Z
2023-11-14T10:52:49Z,42.805,6.029,13.3116,4.60152,2470.824,2023-11-14T12:55:17Z
2023-11-14T10:55:52Z,42.805,6.029,13.3121,4.60173,2470.833,2023-11-14T12:58:20Z
2023-11-14T10:58:56Z,42.805,6.029,13.3113,4.60160,2470.833,2023-11-14T13:01:23Z
2023-11-14T11:01:59Z,42.805,6.029,13.3113,4.60162,2470.847,2023-11-14T13:04:26Z
2023-11-14T11:05:02Z,42.805,6.029,13.3119,4.60172,2470.833,2023-11-14T13:07:29Z
2023-11-14T11:08:05Z,42.805,6.029,13.3120,4.60167,2470.824,2023-11-14T13:10:32Z
2023-11-14T11:11:08Z,42.805,6.029,13.3125,4.60196,2470.763,2023-11-14T13:13:35Z
2023-11-14T11:14:11Z,42.805,6.029,13.3131,4.60181,2470.787,2023-11-14T13:16:38Z
2023-11-14T11:17:14Z,42.805,6.029,13.3128,4.60164,2470.824,2023-11-14T13:19:41Z
2023-11-14T11:20:17Z,42.805,6.029,13.3125,4.60160,2470.8,2023-11-14T13:22:44Z
2023-11-14T11:23:20Z,42.805,6.029,13.3120,4.60162,2470.787,2023-11-14T13:25:47Z
2023-11-14T11:26:23Z,42.805,6.029,13.3105,4.60168,2470.8,2023-11-14T13:28:50Z
2023-11-14T11:29:26Z,42.805,6.029,13.3103,4.60170,2470.777,2023-11-14T13:31:54Z
2023-11-14T11:32:28Z,42.805,6.029,13.3093,4.60174,2470.8,2023-11-14T13:34:55Z
2023-11-14T11:35:31Z,42.805,6.029,13.3084,4.60145,2470.8,2023-11-14T13:37:58Z
2023-11-14T11:38:34Z,42.805,6.029,13.3089,4.60137,2470.81,2023-11-14T13:41:01Z
2023-11-14T11:41:37Z,42.805,6.029,13.3094,4.60139,2470.763,2023-11-14T13:44:04Z
2023-11-14T11:44:40Z,42.805,6.029,13.3092,4.60155,2470.787,2023-11-14T13:47:07Z
2023-11-14T11:47:43Z,42.805,6.029,13.3093,4.60159,2470.763,2023-11-14T13:50:10Z
2023-11-14T11:50:46Z,42.805,6.029,13.3084,4.60150,2470.787,2023-11-14T13:53:13Z
2023-11-14T11:53:49Z,42.805,6.029,13.3082,4.60149,2470.763,2023-11-14T13:56:16Z
2023-11-14T11:56:52Z,42.805,6.029,13.3070,4.60155,2470.787,2023-11-14T13:59:19Z
2023-11-14T11:59:55Z,42.805,6.029,13.3072,4.60158,2470.81,2023-11-14T14:02:22Z
2023-11-14T12:02:58Z,42.805,6.029,13.3071,4.60155,2470.754,2023-11-14T14:05:25Z
2023-11-14T12:06:01Z,42.805,6.029,13.3074,4.60152,2470.763,2023-11-14T14:08:29Z
2023-11-14T12:09:05Z,42.805,6.029,13.3073,4.60160,2470.8,2023-11-14T14:11:32Z
2023-11-14T12:12:08Z,42.805,6.029,13.3070,4.60162,2470.777,2023-11-14T14:14:35Z
2023-11-14T12:15:11Z,42.805,6.029,13.3077,4.60162,2470.777,2023-11-14T14:17:38Z
2023-11-14T12:18:14Z,42.805,6.029,13.3071,4.60158,2470.763,2023-11-14T14:20:41Z
2023-11-14T12:21:17Z,42.805,6.029,13.3067,4.60154,2470.763,2023-11-14T14:23:44Z
2023-11-14T12:24:20Z,42.805,6.029,13.3074,4.60147,2470.754,2023-11-14T14:26:47Z
2023-11-14T12:27:23Z,42.805,6.029,13.3072,4.60154,2470.777,2023-11-14T14:29:50Z
2023-11-14T12:30:26Z,42.805,6.029,13.3082,4.60158,2470.74,2023-11-14T14:32:53Z
2023-11-14T12:33:29Z,42.805,6.029,13.3102,4.60166,2470.777,2023-11-14T14:35:56Z
2023-11-14T12:36:32Z,42.805,6.029,13.3111,4.60186,2470.763,2023-11-14T14:38:59Z
2023-11-14T12:39:35Z,42.805,6.029,13.3103,4.60177,2470.754,2023-11-14T14:42:03Z
2023-11-14T12:42:39Z,42.805,6.029,13.3082,4.60170,2470.754,2023-11-14T14:45:06Z
2023-11-14T12:45:42Z,42.805,6.029,13.3093,4.60150,2470.8,2023-11-14T14:48:09Z
2023-11-14T12:48:45Z,42.805,6.029,13.3093,4.60155,2470.777,2023-11-14T14:51:12Z
2023-11-14T12:51:48Z,42.805,6.029,13.3080,4.60162,2470.73,2023-11-14T14:54:15Z
2023-11-14T12:54:51Z,42.805,6.029,13.3079,4.60141,2470.754,2023-11-14T14:57:18Z
2023-11-14T12:57:54Z,42.805,6.029,13.3069,4.60139,2470.754,2023-11-14T15:00:21Z
2023-11-14T13:00:57Z,42.805,6.029,13.3081,4.60144,2470.754,2023-11-14T15:03:24Z
2023-11-14T13:04:00Z,42.805,6.029,13.3072,4.60164,2470.74,2023-11-14T15:06:27Z
2023-11-14T13:07:03Z,42.805,6.029,13.3082,4.60153,2470.73,2023-11-14T15:09:30Z
2023-11-14T13:10:06Z,42.805,6.029,13.3083,4.60150,2470.74,2023-11-14T15:12:33Z
2023-11-14T13:13:09Z,42.805,6.029,13.3088,4.60164,2470.754,2023-11-14T15:15:36Z
2023-11-14T13:16:12Z,42.805,6.029,13.3091,4.60167,2470.754,2023-11-14T15:18:40Z
2023-11-14T13:19:16Z,42.805,6.029,13.3106,4.60168,2470.73,2023-11-14T15:21:43Z
2023-11-14T13:22:19Z,42.805,6.029,13.3096,4.60142,2470.73,2023-11-14T15:24:46Z
2023-11-14T13:25:22Z,42.805,6.029,13.3098,4.60146,2470.717,2023-11-14T15:27:49Z
2023-11-14T13:28:25Z,42.805,6.029,13.3111,4.60150,2470.73,2023-11-14T15:30:52Z
2023-11-14T13:31:27Z,42.805,6.029,13.3103,4.60151,2470.717,2023-11-14T15:33:54Z
2023-11-14T13:34:30Z,42.805,6.029,13.3101,4.60185,2470.754,2023-11-14T15:36:57Z
2023-11-14T13:37:33Z,42.805,6.029,13.3109,4.60167,2470.73,2023-11-14T15:40:00Z
2023-11-14T13:40:36Z,42.805,6.029,13.3092,4.60179,2470.717,2023-11-14T15:43:03Z
2023-11-14T13:43:39Z,42.805,6.029,13.3101,4.60160,2470.717,2023-11-14T15:46:06Z
2023-11-14T13:46:42Z,42.805,6.029,13.3104,4.60155,2470.717,2023-11-14T15:49:09Z
2023-11-14T13:49:45Z,42.805,6.029,13.3109,4.60192,2470.693,2023-11-14T15:52:12Z
2023-11-14T13:52:48Z,42.805,6.029,13.3111,4.60162,2470.73,2023-11-14T15:55:15Z
2023-11-14T13:55:51Z,42.805,6.029,13.3111,4.60175,2470.73,2023-11-14T15:58:19Z
2023-11-14T13:58:54Z,42.805,6.029,13.3112,4.60154,2470.693,2023-11-14T16:01:22Z
2023-11-14T14:01:58Z,42.805,6.029,13.3118,4.60155,2470.73,2023-11-14T16:04:25Z
2023-11-14T14:05:01Z,42.805,6.029,13.3134,4.60155,2470.717,2023-11-14T16:07:28Z
2023-11-14T14:08:04Z,42.805,6.029,13.3117,4.60139,2470.74,2023-11-14T16:10:31Z
2023-11-14T14:11:07Z,42.805,6.029,13.3112,4.60154,2470.74,2023-11-14T16:13:34Z
2023-11-14T14:14:10Z,42.805,6.029,13.3087,4.60149,2470.754,2023-11-14T16:16:37Z
2023-11-14T14:17:13Z,42.805,6.029,13.3091,4.60149,2470.73,2023-11-14T16:19:40Z
2023-11-14T14:20:16Z,42.805,6.029,13.3108,4.60189,2470.74,2023-11-14T16:22:43Z
2023-11-14T14:23:19Z,42.805,6.029,13.3098,4.60162,2470.73,2023-11-14T16:25:46Z
2023-11-14T14:26:22Z,42.805,6.029,13.3112,4.60146,2470.717,2023-11-14T16:28:49Z
2023-11-14T14:29:25Z,42.805,6.029,13.3124,4.60152,2470.717,2023-11-14T16:31:52Z
2023-11-14T14:32:28Z,42.805,6.029,13.3112,4.60154,2470.693,2023-11-14T16:34:56Z
2023-11-14T14:35:32Z,42.805,6.029,13.3096,4.60163,2470.73,2023-11-14T16:37:59Z
2023-11-14T14:38:35Z,42.805,6.029,13.3097,4.60153,2470.717,2023-11-14T16:41:02Z
2023-11-14T14:41:38Z,42.805,6.029,13.3096,4.60146,2470.73,2023-11-14T16:44:05Z
2023-11-14T14:44:41Z,42.805,6.029,13.3098,4.60150,2470.73,2023-11-14T16:47:08Z
2023-11-14T14:47:44Z,42.805,6.029,13.3106,4.60160,2470.74,2023-11-14T16:50:11Z
2023-11-14T14:50:47Z,42.805,6.029,13.3106,4.60162,2470.707,2023-11-14T16:53:14Z
2023-11-14T14:53:50Z,42.805,6.029,13.3085,4.60163,2470.73,2023-11-14T16:56:17Z
2023-11-14T14:56:53Z,42.805,6.029,13.3103,4.60175,2470.717,2023-11-14T16:59:20Z
2023-11-14T14:59:56Z,42.805,6.029,13.3098,4.60169,2470.717,2023-11-14T17:02:23Z
2023-11-14T15:02:59Z,42.805,6.029,13.3101,4.60160,2470.74,2023-11-14T17:05:26Z